contact:dominique.lefevre@mio.osupytheas.fr, maurice.libes@osupytheas.fr, didier.mallarino@osupytheas.fr
Project:EMSO http://www.emso-fr.org/EMSO-France
Depth: 2436.0 m
Title:EMSO Ligure Ouest : Data MII capteur AQUADOPP
Date,Latitude,Longitude,X_East,Y_North,Z_Up,Amplitude_X,Amplitude_Y,Amplitude_Z,Batterie,SoundSpeed,Heading,Pitch,Roll,Pressure,TIS,Speed,Direction
, degrees North, degrees East, m.s-1, m.s-1,m.s-1, 1, 1, 1, Volt, m.s-1, degree, degree, degree, dbar, degree_C, m.s-1, degree
2022-06-04T00:04:03,42.805,6.029,-0.041,0.019,-0.013,102.0,103.0,101.0,13.4,1505.2,322.6,-0.8,1.8,2470.986,13.28,0.045,294.9
2022-06-04T00:07:03,42.805,6.029,-0.026,-0.006,0.003,105.0,103.0,102.0,13.4,1505.2,330.5,-0.7,1.8,2471.025,13.28,0.026,257.0
2022-06-04T00:10:03,42.805,6.029,-0.022,-0.002,-0.003,105.0,101.0,102.0,13.4,1505.2,325.9,-0.7,1.8,2471.006,13.29,0.022,264.8
2022-06-04T00:13:03,42.805,6.029,-0.012,-0.003,-0.013,104.0,104.0,101.0,13.3,1505.2,329.5,-0.8,1.8,2471.027,13.29,0.012,256.0
2022-06-04T00:16:03,42.805,6.029,-0.02,0.003,-0.021,103.0,103.0,101.0,13.4,1505.2,323.0,-0.7,1.8,2470.992,13.29,0.02,278.5
2022-06-04T00:19:03,42.805,6.029,-0.026,0.002,-0.027,103.0,103.0,102.0,13.4,1505.2,326.1,-0.8,1.9,2471.024,13.29,0.026,274.4
2022-06-04T00:22:03,42.805,6.029,-0.007,-0.002,0.025,103.0,102.0,102.0,13.4,1505.2,325.6,-0.8,1.8,2471.0,13.29,0.007,254.1
2022-06-04T00:25:03,42.805,6.029,-0.009,0.011,-0.021,103.0,102.0,101.0,13.4,1505.2,325.2,-0.8,1.8,2471.012,13.29,0.014,320.7
2022-06-04T00:28:03,42.805,6.029,-0.025,0.026,0.016,103.0,103.0,101.0,13.4,1505.2,328.5,-0.8,1.8,2471.042,13.29,0.036,316.1
2022-06-04T00:31:03,42.805,6.029,-0.02,0.011,-0.035,102.0,103.0,102.0,13.4,1505.2,333.2,-0.7,1.8,2470.992,13.29,0.022,298.8
2022-06-04T00:34:03,42.805,6.029,-0.012,0.007,-0.042,102.0,105.0,101.0,13.4,1505.2,330.7,-0.8,1.8,2471.025,13.29,0.013,300.3
2022-06-04T00:37:03,42.805,6.029,0.0,0.011,0.011,103.0,103.0,102.0,13.3,1505.2,324.1,-0.8,1.8,2470.994,13.29,0.011,0.0
2022-06-04T00:40:03,42.805,6.029,-0.007,0.0,-0.025,105.0,104.0,103.0,13.4,1505.2,325.1,-0.7,1.8,2470.999,13.29,0.007,270.0
2022-06-04T00:43:03,42.805,6.029,-0.014,0.021,-0.015,105.0,102.0,101.0,13.4,1505.2,331.4,-0.8,1.8,2470.991,13.29,0.025,326.3
2022-06-04T00:46:03,42.805,6.029,-0.025,-0.002,-0.031,103.0,102.0,101.0,13.4,1505.2,329.8,-0.7,1.8,2470.979,13.29,0.025,265.4
2022-06-04T00:49:03,42.805,6.029,-0.033,0.017,-0.028,103.0,102.0,102.0,13.3,1505.2,320.3,-0.8,1.8,2470.983,13.29,0.037,297.3
2022-06-04T00:52:03,42.805,6.029,-0.035,0.019,-0.01,103.0,104.0,102.0,13.4,1505.2,331.6,-0.8,1.8,2470.974,13.29,0.039,298.5
2022-06-04T00:55:03,42.805,6.029,-0.026,0.002,-0.034,102.0,106.0,102.0,13.4,1505.2,325.5,-0.8,1.8,2470.959,13.29,0.026,274.4
2022-06-04T00:58:03,42.805,6.029,-0.015,0.022,0.005,101.0,103.0,102.0,13.4,1505.2,333.2,-0.8,1.8,2470.984,13.29,0.026,325.7
2022-06-04T01:04:03,42.805,6.029,-0.048,-0.011,-0.039,103.0,103.0,102.0,13.4,1505.2,323.7,-0.8,1.8,2470.995,13.28,0.049,257.1
2022-06-04T01:07:03,42.805,6.029,-0.025,0.0,-0.025,103.0,103.0,102.0,13.3,1505.2,327.5,-0.8,1.8,2470.994,13.28,0.025,270.0
2022-06-04T01:10:03,42.805,6.029,-0.026,0.0,0.006,103.0,102.0,102.0,13.4,1505.2,324.0,-0.8,1.8,2470.984,13.29,0.026,270.0
2022-06-04T01:13:03,42.805,6.029,-0.024,0.018,-0.001,102.0,104.0,102.0,13.4,1505.2,328.8,-0.7,1.8,2470.972,13.29,0.03,306.9
2022-06-04T01:16:03,42.805,6.029,-0.025,0.01,0.005,103.0,104.0,100.0,13.4,1505.2,326.5,-0.8,1.8,2470.988,13.29,0.026,291.8
2022-06-04T01:19:03,42.805,6.029,-0.028,0.0,-0.03,103.0,103.0,101.0,13.3,1505.2,323.6,-0.7,1.8,2470.982,13.29,0.028,270.0
2022-06-04T01:22:03,42.805,6.029,-0.012,-0.001,-0.026,102.0,101.0,102.0,13.4,1505.2,331.1,-0.7,1.8,2470.955,13.29,0.012,265.2
2022-06-04T01:25:03,42.805,6.029,-0.027,0.003,-0.024,103.0,103.0,101.0,13.4,1505.2,323.9,-0.7,1.8,2470.95,13.29,0.027,276.3
2022-06-04T01:28:03,42.805,6.029,-0.017,0.017,-0.001,103.0,104.0,101.0,13.3,1505.2,331.6,-0.7,1.8,2470.939,13.29,0.024,315.0
2022-06-04T01:31:03,42.805,6.029,-0.04,0.0,-0.012,104.0,104.0,101.0,13.4,1505.2,323.9,-0.8,1.8,2470.972,13.29,0.04,270.0
2022-06-04T01:34:03,42.805,6.029,-0.028,-0.005,-0.045,105.0,103.0,101.0,13.4,1505.2,329.9,-0.8,1.8,2470.956,13.29,0.028,259.9
2022-06-04T01:37:03,42.805,6.029,-0.042,0.008,-0.004,104.0,103.0,101.0,13.3,1505.2,330.3,-0.8,1.8,2470.9,13.29,0.042,280.8
2022-06-04T01:40:03,42.805,6.029,-0.019,-0.006,-0.029,103.0,104.0,101.0,13.4,1505.2,322.8,-0.7,1.9,2470.959,13.29,0.019,252.5
2022-06-04T01:43:03,42.805,6.029,-0.002,-0.005,0.003,103.0,104.0,102.0,13.3,1505.2,320.9,-0.8,1.8,2470.938,13.29,0.005,201.8
2022-06-04T01:46:03,42.805,6.029,-0.026,0.013,-0.016,103.0,104.0,101.0,13.4,1505.2,332.7,-0.8,1.8,2470.928,13.29,0.029,296.6
2022-06-04T01:49:03,42.805,6.029,-0.021,0.005,-0.024,104.0,103.0,103.0,13.3,1505.2,331.5,-0.8,1.8,2470.909,13.29,0.021,283.4
2022-06-04T01:52:03,42.805,6.029,-0.001,0.001,-0.001,102.0,103.0,103.0,13.3,1505.2,323.8,-0.7,1.8,2470.936,13.29,0.001,315.0
2022-06-04T01:55:03,42.805,6.029,-0.033,-0.001,-0.002,103.0,104.0,101.0,13.4,1505.2,325.0,-0.8,1.8,2470.989,13.29,0.033,268.3
2022-06-04T01:58:03,42.805,6.029,-0.027,0.001,-0.011,105.0,103.0,102.0,13.3,1505.2,321.2,-0.7,1.8,2470.953,13.29,0.027,272.1
2022-06-04T02:04:03,42.805,6.029,-0.025,-0.008,-0.004,104.0,104.0,102.0,13.4,1505.2,324.9,-0.8,1.8,2470.987,13.28,0.026,252.3
2022-06-04T02:07:03,42.805,6.029,-0.034,-0.006,-0.011,105.0,103.0,102.0,13.3,1505.2,326.3,-0.7,1.8,2471.022,13.28,0.034,260.0
2022-06-04T02:10:03,42.805,6.029,-0.015,0.018,0.001,103.0,103.0,102.0,13.3,1505.2,325.5,-0.8,1.8,2470.955,13.29,0.023,320.2
2022-06-04T02:13:03,42.805,6.029,-0.047,0.011,-0.047,103.0,103.0,102.0,13.4,1505.2,331.6,-0.8,1.8,2470.96,13.29,0.048,283.2
2022-06-04T02:16:03,42.805,6.029,-0.03,0.005,-0.017,106.0,103.0,102.0,13.4,1505.2,329.5,-0.8,1.8,2470.958,13.29,0.03,279.5
2022-06-04T02:19:03,42.805,6.029,-0.005,-0.004,-0.036,104.0,104.0,102.0,13.3,1505.2,330.3,-0.8,1.8,2470.909,13.29,0.006,231.3
2022-06-04T02:22:03,42.805,6.029,-0.015,0.001,-0.028,103.0,105.0,102.0,13.4,1505.2,326.3,-0.7,1.8,2470.922,13.29,0.015,273.8
2022-06-04T02:25:03,42.805,6.029,-0.031,0.031,-0.016,103.0,104.0,103.0,13.4,1505.2,324.6,-0.8,1.8,2470.954,13.29,0.043,315.0
2022-06-04T02:28:03,42.805,6.029,-0.041,0.001,0.0,105.0,104.0,102.0,13.3,1505.2,327.1,-0.8,1.8,2470.923,13.29,0.041,271.4
2022-06-04T02:31:03,42.805,6.029,-0.025,0.002,-0.03,104.0,104.0,100.0,13.4,1505.2,329.7,-0.8,1.8,2470.929,13.29,0.025,274.6
2022-06-04T02:34:03,42.805,6.029,-0.031,-0.001,0.0,103.0,103.0,102.0,13.3,1505.2,329.2,-0.7,1.8,2470.897,13.29,0.031,268.2
2022-06-04T02:37:03,42.805,6.029,-0.01,0.01,-0.007,103.0,103.0,102.0,13.3,1505.2,327.5,-0.8,1.9,2470.888,13.29,0.014,315.0
2022-06-04T02:40:03,42.805,6.029,-0.026,-0.005,-0.017,103.0,103.0,102.0,13.4,1505.2,328.4,-0.8,1.8,2470.918,13.29,0.026,259.1
2022-06-04T02:43:03,42.805,6.029,-0.01,0.011,-0.007,102.0,104.0,102.0,13.3,1505.2,327.6,-0.7,1.8,2470.959,13.29,0.014,317.7
2022-06-04T02:46:03,42.805,6.029,-0.026,0.016,0.015,103.0,104.0,102.0,13.4,1505.2,324.6,-0.8,1.8,2470.9,13.29,0.03,301.6
2022-06-04T02:49:03,42.805,6.029,-0.026,-0.001,0.004,104.0,103.0,102.0,13.4,1505.2,324.9,-0.7,1.8,2470.95,13.29,0.026,267.8
2022-06-04T02:52:03,42.805,6.029,-0.037,0.01,-0.001,103.0,107.0,101.0,13.3,1505.2,325.0,-0.8,1.8,2470.896,13.29,0.038,285.1
2022-06-04T02:55:03,42.805,6.029,0.0,-0.001,-0.048,104.0,103.0,100.0,13.4,1505.2,328.5,-0.7,1.8,2470.896,13.29,0.001,180.0
2022-06-04T02:58:03,42.805,6.029,-0.003,0.017,0.027,104.0,103.0,101.0,13.4,1505.2,330.4,-0.8,1.8,2470.882,13.29,0.017,350.0
2022-06-04T03:04:03,42.805,6.029,-0.006,0.009,-0.028,104.0,103.0,102.0,13.4,1505.2,329.4,-0.7,1.8,2470.93,13.28,0.01,326.3
2022-06-04T03:07:03,42.805,6.029,-0.032,0.017,-0.014,102.0,103.0,102.0,13.4,1505.2,327.9,-0.8,1.8,2470.953,13.29,0.036,298.0
2022-06-04T03:10:03,42.805,6.029,-0.025,0.006,-0.019,102.0,103.0,102.0,13.4,1505.2,333.4,-0.8,1.8,2470.974,13.29,0.025,283.5
2022-06-04T03:13:03,42.805,6.029,-0.008,0.015,0.0,103.0,101.0,100.0,13.4,1505.2,326.3,-0.7,1.8,2470.961,13.29,0.017,331.9
2022-06-04T03:16:03,42.805,6.029,-0.025,0.034,0.006,103.0,103.0,101.0,13.3,1505.2,323.3,-0.7,1.8,2470.95,13.29,0.042,323.7
2022-06-04T03:19:03,42.805,6.029,-0.036,0.011,0.001,101.0,102.0,101.0,13.4,1505.2,328.4,-0.7,1.8,2470.943,13.29,0.037,287.0
2022-06-04T03:22:03,42.805,6.029,-0.015,0.025,-0.006,105.0,102.0,102.0,13.4,1505.2,331.3,-0.8,1.8,2470.94,13.29,0.029,329.0
2022-06-04T03:25:03,42.805,6.029,-0.025,-0.016,-0.006,102.0,102.0,102.0,13.4,1505.2,328.7,-0.7,1.8,2470.916,13.29,0.029,237.4
2022-06-04T03:28:03,42.805,6.029,-0.043,0.015,-0.027,101.0,103.0,102.0,13.4,1505.2,328.4,-0.7,1.8,2470.958,13.29,0.045,289.2
2022-06-04T03:31:03,42.805,6.029,-0.023,0.019,-0.027,103.0,103.0,101.0,13.4,1505.2,328.2,-0.8,1.8,2470.914,13.29,0.029,309.6
2022-06-04T03:34:03,42.805,6.029,-0.013,0.007,-0.012,102.0,103.0,101.0,13.4,1505.2,324.8,-0.7,1.8,2470.943,13.29,0.014,298.3
2022-06-04T03:37:03,42.805,6.029,-0.019,0.011,-0.029,103.0,103.0,100.0,13.4,1505.2,326.0,-0.8,1.8,2470.843,13.29,0.021,300.1
2022-06-04T03:40:03,42.805,6.029,-0.008,0.007,0.001,104.0,103.0,100.0,13.4,1505.2,326.5,-0.8,1.8,2470.934,13.29,0.01,311.2
2022-06-04T03:43:03,42.805,6.029,-0.013,-0.005,0.004,102.0,103.0,102.0,13.3,1505.2,324.4,-0.7,1.8,2470.91,13.29,0.013,249.0
2022-06-04T03:46:03,42.805,6.029,-0.024,0.011,-0.02,102.0,103.0,100.0,13.4,1505.2,325.9,-0.8,1.8,2470.968,13.29,0.026,294.6
2022-06-04T03:49:03,42.805,6.029,-0.006,0.017,-0.003,103.0,102.0,100.0,13.4,1505.2,323.9,-0.7,1.8,2470.933,13.29,0.018,340.6
2022-06-04T03:52:03,42.805,6.029,-0.027,0.002,-0.047,103.0,101.0,101.0,13.3,1505.2,326.9,-0.7,1.8,2470.921,13.29,0.027,274.2
2022-06-04T03:55:03,42.805,6.029,-0.006,0.015,-0.002,104.0,101.0,101.0,13.4,1505.2,324.4,-0.8,1.8,2470.868,13.29,0.016,338.2
2022-06-04T03:58:03,42.805,6.029,0.014,0.009,0.007,101.0,102.0,102.0,13.4,1505.2,325.9,-0.8,1.8,2470.884,13.29,0.016,57.3
2022-06-04T04:04:03,42.805,6.029,-0.026,0.013,-0.023,104.0,103.0,101.0,13.3,1505.2,328.9,-0.8,1.8,2470.933,13.28,0.029,296.6
2022-06-04T04:07:03,42.805,6.029,0.0,-0.002,0.005,101.0,102.0,101.0,13.4,1505.2,331.4,-0.8,1.8,2470.965,13.29,0.002,180.0
2022-06-04T04:10:03,42.805,6.029,-0.019,0.009,-0.011,103.0,102.0,101.0,13.4,1505.2,331.6,-0.8,1.8,2470.954,13.29,0.021,295.3
2022-06-04T04:13:03,42.805,6.029,0.015,-0.007,0.044,103.0,102.0,101.0,13.4,1505.2,331.6,-0.8,1.8,2470.913,13.29,0.016,115.0
2022-06-04T04:16:03,42.805,6.029,0.01,0.001,0.01,103.0,106.0,101.0,13.3,1505.2,323.7,-0.7,1.8,2470.946,13.29,0.01,84.3
2022-06-04T04:19:03,42.805,6.029,-0.028,0.012,-0.006,104.0,103.0,101.0,13.4,1505.2,329.5,-0.7,1.8,2470.891,13.29,0.03,293.2
2022-06-04T04:22:03,42.805,6.029,-0.018,0.0,-0.013,101.0,103.0,101.0,13.4,1505.2,330.5,-0.7,1.8,2470.901,13.29,0.018,270.0
2022-06-04T04:25:03,42.805,6.029,-0.011,0.011,-0.014,103.0,103.0,101.0,13.3,1505.2,327.9,-0.8,1.8,2470.9,13.29,0.015,315.0
2022-06-04T04:28:03,42.805,6.029,0.01,0.008,0.002,103.0,103.0,100.0,13.3,1505.2,325.8,-0.7,1.8,2470.92,13.29,0.012,51.3
2022-06-04T04:31:03,42.805,6.029,-0.012,0.008,0.006,100.0,103.0,101.0,13.4,1505.2,325.4,-0.7,1.8,2470.869,13.29,0.014,303.7
2022-06-04T04:34:03,42.805,6.029,-0.021,-0.009,-0.019,102.0,102.0,101.0,13.3,1505.2,328.0,-0.8,1.8,2470.908,13.29,0.022,246.8
2022-06-04T04:37:03,42.805,6.029,-0.011,-0.002,-0.013,104.0,102.0,102.0,13.3,1505.2,326.4,-0.8,1.8,2470.903,13.29,0.011,259.7
2022-06-04T04:40:03,42.805,6.029,-0.014,-0.004,0.003,102.0,104.0,101.0,13.3,1505.2,327.8,-0.7,1.8,2470.877,13.29,0.014,254.1
2022-06-04T04:43:03,42.805,6.029,-0.036,0.018,-0.014,103.0,103.0,101.0,13.4,1505.2,322.5,-0.8,1.8,2470.857,13.29,0.04,296.6
2022-06-04T04:46:03,42.805,6.029,-0.018,0.017,-0.03,102.0,104.0,100.0,13.4,1505.2,323.6,-0.7,1.8,2470.881,13.29,0.024,313.4
2022-06-04T04:49:03,42.805,6.029,-0.016,0.006,-0.044,104.0,104.0,101.0,13.3,1505.2,323.7,-0.8,1.8,2470.879,13.29,0.017,290.6
2022-06-04T04:52:03,42.805,6.029,-0.018,0.033,-0.011,103.0,104.0,101.0,13.4,1505.2,328.2,-0.8,1.8,2470.854,13.29,0.037,331.4
2022-06-04T04:55:03,42.805,6.029,-0.011,0.016,-0.008,102.0,102.0,101.0,13.4,1505.2,331.7,-0.7,1.8,2470.875,13.29,0.019,325.5
2022-06-04T04:58:03,42.805,6.029,-0.014,-0.01,-0.022,103.0,105.0,100.0,13.4,1505.2,321.7,-0.8,1.8,2470.848,13.29,0.017,234.5
2022-06-04T05:04:03,42.805,6.029,-0.006,0.002,-0.009,104.0,100.0,101.0,13.4,1505.2,332.9,-0.8,1.9,2470.913,13.29,0.006,288.4
2022-06-04T05:07:03,42.805,6.029,-0.01,0.014,0.009,105.0,103.0,103.0,13.4,1505.2,325.5,-0.8,1.8,2470.938,13.29,0.017,324.5
2022-06-04T05:10:03,42.805,6.029,0.012,-0.006,0.011,104.0,102.0,102.0,13.4,1505.2,329.7,-0.8,1.8,2470.938,13.29,0.013,116.6
2022-06-04T05:13:03,42.805,6.029,-0.004,0.003,0.0,104.0,102.0,101.0,13.4,1505.2,329.5,-0.7,1.8,2470.904,13.29,0.005,306.9
2022-06-04T05:16:03,42.805,6.029,-0.027,-0.001,0.027,103.0,104.0,101.0,13.3,1505.2,331.7,-0.8,1.8,2470.857,13.29,0.027,267.9
2022-06-04T05:19:03,42.805,6.029,-0.026,0.017,-0.01,103.0,103.0,101.0,13.4,1505.2,331.9,-0.8,1.8,2470.906,13.29,0.031,303.2
2022-06-04T05:22:03,42.805,6.029,-0.017,0.002,-0.01,104.0,102.0,101.0,13.4,1505.2,331.8,-0.8,1.8,2470.923,13.29,0.017,276.7
2022-06-04T05:25:03,42.805,6.029,-0.008,0.014,-0.02,104.0,101.0,101.0,13.4,1505.2,323.5,-0.8,1.8,2470.886,13.29,0.016,330.3
2022-06-04T05:28:03,42.805,6.029,-0.035,-0.001,-0.029,102.0,102.0,104.0,13.3,1505.2,319.9,-0.7,1.8,2470.853,13.29,0.035,268.4
2022-06-04T05:31:03,42.805,6.029,-0.008,-0.001,-0.02,103.0,103.0,101.0,13.4,1505.2,328.4,-0.8,1.8,2470.856,13.29,0.008,262.9
2022-06-04T05:34:03,42.805,6.029,-0.008,-0.019,-0.034,102.0,102.0,102.0,13.3,1505.2,322.2,-0.7,1.9,2470.889,13.29,0.02,202.8
2022-06-04T05:37:03,42.805,6.029,-0.003,-0.021,-0.049,103.0,102.0,102.0,13.4,1505.2,326.3,-0.8,1.8,2470.881,13.29,0.021,188.1
2022-06-04T05:40:03,42.805,6.029,-0.008,0.001,-0.038,102.0,102.0,101.0,13.4,1505.2,325.5,-0.7,1.8,2470.879,13.29,0.008,277.1
2022-06-04T05:43:03,42.805,6.029,-0.027,-0.002,-0.004,102.0,103.0,101.0,13.4,1505.2,331.4,-0.8,1.8,2470.882,13.29,0.027,265.8
2022-06-04T05:46:03,42.805,6.029,-0.013,-0.007,-0.014,102.0,102.0,101.0,13.4,1505.2,320.7,-0.8,1.8,2470.899,13.29,0.014,241.7
2022-06-04T05:49:03,42.805,6.029,-0.009,0.005,-0.012,103.0,102.0,101.0,13.3,1505.2,324.8,-0.8,1.8,2470.862,13.29,0.01,299.1
2022-06-04T05:52:03,42.805,6.029,0.004,-0.002,0.021,102.0,102.0,101.0,13.4,1505.2,330.9,-0.7,1.8,2470.893,13.29,0.004,116.6
2022-06-04T05:55:03,42.805,6.029,-0.016,-0.001,0.017,103.0,102.0,101.0,13.4,1505.2,325.9,-0.8,1.8,2470.849,13.29,0.016,266.4
2022-06-04T05:58:03,42.805,6.029,-0.021,0.004,-0.026,104.0,102.0,101.0,13.4,1505.2,331.3,-0.7,1.8,2470.89,13.29,0.021,280.8
2022-06-04T06:04:03,42.805,6.029,-0.023,0.004,-0.061,103.0,102.0,102.0,13.3,1505.2,325.2,-0.8,1.8,2470.924,13.29,0.023,279.9
2022-06-04T06:07:03,42.805,6.029,-0.01,0.016,-0.003,103.0,104.0,100.0,13.4,1505.2,328.1,-0.8,1.9,2470.956,13.29,0.018,328.0
2022-06-04T06:10:03,42.805,6.029,-0.013,0.003,-0.015,105.0,102.0,100.0,13.4,1505.2,330.7,-0.8,1.8,2470.932,13.29,0.013,283.0
2022-06-04T06:13:03,42.805,6.029,-0.01,0.005,-0.008,102.0,102.0,100.0,13.3,1505.2,325.9,-0.7,1.8,2470.881,13.29,0.011,296.6
2022-06-04T06:16:03,42.805,6.029,0.001,-0.014,-0.009,102.0,102.0,100.0,13.3,1505.2,330.4,-0.8,1.8,2470.946,13.29,0.014,175.9
2022-06-04T06:19:03,42.805,6.029,-0.005,-0.01,0.012,100.0,102.0,102.0,13.4,1505.2,321.5,-0.7,1.8,2470.921,13.29,0.011,206.6
2022-06-04T06:22:03,42.805,6.029,0.0,-0.002,-0.034,102.0,101.0,102.0,13.4,1505.2,324.4,-0.7,1.8,2470.876,13.29,0.002,180.0
2022-06-04T06:25:03,42.805,6.029,0.008,0.0,-0.008,104.0,101.0,100.0,13.4,1505.2,328.9,-0.8,1.8,2470.887,13.29,0.008,90.0
2022-06-04T06:28:03,42.805,6.029,-0.015,0.0,-0.015,105.0,105.0,100.0,13.4,1505.2,321.6,-0.8,1.8,2470.896,13.29,0.015,270.0
2022-06-04T06:31:03,42.805,6.029,0.007,-0.006,0.014,100.0,104.0,103.0,13.4,1505.2,325.2,-0.7,1.8,2470.896,13.29,0.009,130.6
2022-06-04T06:34:03,42.805,6.029,-0.012,-0.011,-0.014,103.0,102.0,102.0,13.4,1505.2,323.4,-0.8,1.8,2470.906,13.29,0.016,227.5
2022-06-04T06:37:03,42.805,6.029,0.001,0.0,-0.022,103.0,103.0,100.0,13.4,1505.2,325.1,-0.8,1.8,2470.908,13.29,0.001,90.0
2022-06-04T06:40:03,42.805,6.029,0.019,-0.004,-0.033,103.0,102.0,100.0,13.4,1505.2,329.1,-0.7,1.9,2470.891,13.29,0.019,101.9
2022-06-04T06:43:03,42.805,6.029,-0.01,-0.005,-0.004,106.0,102.0,100.0,13.4,1505.2,320.8,-0.7,1.8,2470.874,13.29,0.011,243.4
2022-06-04T06:46:03,42.805,6.029,-0.018,0.0,-0.005,103.0,102.0,101.0,13.3,1505.2,324.8,-0.8,1.8,2470.881,13.29,0.018,270.0
2022-06-04T06:49:03,42.805,6.029,-0.01,0.002,-0.019,103.0,101.0,101.0,13.3,1505.2,331.8,-0.8,1.8,2470.884,13.29,0.01,281.3
2022-06-04T06:52:03,42.805,6.029,-0.022,-0.007,-0.006,102.0,102.0,101.0,13.3,1505.2,320.8,-0.8,1.7,2470.923,13.29,0.023,252.4
2022-06-04T06:55:03,42.805,6.029,-0.002,-0.011,-0.027,102.0,102.0,103.0,13.4,1505.2,328.7,-0.8,1.8,2470.895,13.29,0.011,190.3
2022-06-04T06:58:03,42.805,6.029,-0.021,-0.007,-0.003,104.0,102.0,101.0,13.3,1505.2,325.6,-0.8,1.8,2470.855,13.29,0.022,251.6
2022-06-04T07:04:03,42.805,6.029,-0.026,-0.001,-0.004,103.0,104.0,101.0,13.3,1505.2,326.1,-0.8,1.8,2470.961,13.29,0.026,267.8
2022-06-04T07:07:03,42.805,6.029,-0.018,0.009,-0.003,103.0,104.0,101.0,13.3,1505.2,325.3,-0.7,1.8,2470.913,13.29,0.02,296.6
2022-06-04T07:10:03,42.805,6.029,-0.019,-0.003,-0.005,102.0,102.0,101.0,13.3,1505.2,328.0,-0.7,1.8,2470.891,13.29,0.019,261.0
2022-06-04T07:13:03,42.805,6.029,0.012,0.018,0.027,103.0,102.0,106.0,13.4,1505.2,326.3,-0.8,1.8,2470.947,13.29,0.021,33.7
2022-06-04T07:16:03,42.805,6.029,-0.011,0.005,0.009,103.0,103.0,100.0,13.4,1505.2,321.9,-0.7,1.8,2470.922,13.29,0.012,294.4
2022-06-04T07:19:03,42.805,6.029,0.001,-0.006,-0.004,103.0,103.0,101.0,13.3,1505.2,331.2,-0.8,1.8,2470.921,13.29,0.006,170.5
2022-06-04T07:22:03,42.805,6.029,0.006,-0.001,-0.017,105.0,102.0,100.0,13.4,1505.2,326.0,-0.8,1.8,2470.923,13.29,0.006,99.5
2022-06-04T07:25:03,42.805,6.029,0.009,-0.009,-0.038,103.0,108.0,100.0,13.4,1505.2,330.5,-0.7,1.8,2470.909,13.29,0.012,135.0
2022-06-04T07:28:03,42.805,6.029,-0.027,0.011,0.013,102.0,102.0,100.0,13.3,1505.2,321.8,-0.7,1.8,2470.927,13.29,0.029,292.2
2022-06-04T07:31:03,42.805,6.029,-0.005,-0.006,0.002,103.0,101.0,101.0,13.4,1505.2,325.5,-0.7,1.8,2470.929,13.29,0.007,219.8
2022-06-04T07:34:03,42.805,6.029,-0.001,-0.004,-0.013,102.0,102.0,101.0,13.3,1505.2,331.1,-0.8,1.8,2470.921,13.29,0.004,194.0
2022-06-04T07:37:03,42.805,6.029,0.001,0.012,0.01,101.0,102.0,100.0,13.4,1505.2,322.8,-0.7,1.8,2470.913,13.29,0.012,4.8
2022-06-04T07:40:03,42.805,6.029,-0.024,0.009,-0.012,102.0,101.0,100.0,13.4,1505.2,332.7,-0.8,1.8,2470.891,13.29,0.025,290.6
2022-06-04T07:43:03,42.805,6.029,-0.02,-0.012,-0.044,104.0,101.0,100.0,13.4,1505.2,332.1,-0.8,1.8,2470.927,13.29,0.023,239.0
2022-06-04T07:46:03,42.805,6.029,-0.041,0.0,-0.018,102.0,102.0,101.0,13.4,1505.2,330.9,-0.7,1.8,2470.957,13.29,0.041,270.0
2022-06-04T07:49:03,42.805,6.029,0.003,0.0,0.001,100.0,105.0,99.0,13.4,1505.2,328.1,-0.8,1.8,2470.93,13.29,0.003,90.0
2022-06-04T07:52:03,42.805,6.029,-0.013,-0.004,-0.017,104.0,101.0,101.0,13.4,1505.2,328.2,-0.8,1.8,2470.898,13.29,0.013,252.9
2022-06-04T07:55:03,42.805,6.029,-0.011,0.012,-0.006,101.0,100.0,102.0,13.3,1505.2,326.8,-0.7,1.8,2470.922,13.29,0.016,317.5
2022-06-04T07:58:03,42.805,6.029,0.004,-0.018,-0.05,104.0,105.0,101.0,13.4,1505.2,324.6,-0.8,1.8,2470.957,13.29,0.018,167.5
2022-06-04T08:04:03,42.805,6.029,-0.009,0.001,-0.014,103.0,103.0,101.0,13.3,1505.2,324.7,-0.7,1.8,2470.956,13.29,0.009,276.3
2022-06-04T08:07:03,42.805,6.029,-0.02,-0.007,-0.014,102.0,103.0,102.0,13.4,1505.2,326.8,-0.8,1.8,2470.961,13.29,0.021,250.7
2022-06-04T08:10:03,42.805,6.029,-0.006,0.006,0.002,103.0,101.0,101.0,13.4,1505.2,331.2,-0.8,1.8,2470.987,13.29,0.008,315.0
2022-06-04T08:13:03,42.805,6.029,-0.006,-0.006,-0.008,103.0,102.0,100.0,13.4,1505.2,327.1,-0.7,1.8,2470.967,13.29,0.008,225.0
2022-06-04T08:16:03,42.805,6.029,-0.001,-0.001,-0.032,104.0,103.0,101.0,13.4,1505.2,326.7,-0.8,1.8,2470.917,13.29,0.001,225.0
2022-06-04T08:19:03,42.805,6.029,-0.004,0.001,-0.027,103.0,102.0,101.0,13.4,1505.2,327.2,-0.7,1.8,2470.915,13.29,0.004,284.0
2022-06-04T08:22:03,42.805,6.029,-0.042,-0.003,-0.042,103.0,101.0,102.0,13.3,1505.2,331.1,-0.8,1.8,2470.939,13.29,0.042,265.9
2022-06-04T08:25:03,42.805,6.029,0.006,-0.008,-0.01,103.0,101.0,100.0,13.3,1505.2,326.4,-0.8,1.8,2470.955,13.29,0.01,143.1
2022-06-04T08:28:03,42.805,6.029,-0.008,-0.026,-0.007,103.0,103.0,102.0,13.4,1505.2,326.3,-0.8,1.8,2470.909,13.29,0.027,197.1
2022-06-04T08:31:03,42.805,6.029,-0.025,-0.018,-0.022,101.0,103.0,101.0,13.3,1505.2,326.8,-0.7,1.8,2470.92,13.29,0.03,234.2
2022-06-04T08:34:03,42.805,6.029,-0.002,-0.008,-0.002,102.0,103.0,99.0,13.4,1505.2,328.4,-0.7,1.8,2470.938,13.29,0.008,194.0
2022-06-04T08:37:03,42.805,6.029,0.002,0.007,0.0,103.0,103.0,101.0,13.4,1505.2,328.4,-0.7,1.8,2470.945,13.29,0.007,15.9
2022-06-04T08:40:03,42.805,6.029,-0.015,-0.005,-0.002,104.0,101.0,101.0,13.4,1505.2,321.5,-0.7,1.8,2470.954,13.29,0.015,251.6
2022-06-04T08:43:03,42.805,6.029,0.001,-0.028,-0.033,105.0,103.0,100.0,13.4,1505.2,328.6,-0.7,1.8,2470.956,13.29,0.028,178.0
2022-06-04T08:46:03,42.805,6.029,0.003,-0.004,-0.018,104.0,101.0,102.0,13.4,1505.2,325.9,-0.7,1.8,2470.89,13.29,0.005,143.1
2022-06-04T08:49:03,42.805,6.029,0.011,0.008,-0.007,104.0,104.0,100.0,13.4,1505.2,325.9,-0.8,1.8,2470.936,13.29,0.013,54.0
2022-06-04T08:52:03,42.805,6.029,0.0,-0.011,-0.009,102.0,101.0,101.0,13.4,1505.2,326.5,-0.7,1.8,2470.899,13.29,0.011,180.0
2022-06-04T08:55:03,42.805,6.029,-0.005,-0.007,-0.027,102.0,102.0,102.0,13.3,1505.2,321.8,-0.8,1.9,2470.94,13.29,0.008,215.5
2022-06-04T08:58:03,42.805,6.029,-0.031,-0.006,-0.001,102.0,101.0,101.0,13.4,1505.2,329.4,-0.7,1.8,2470.956,13.29,0.031,259.0
2022-06-04T09:04:03,42.805,6.029,-0.001,-0.01,-0.051,103.0,102.0,101.0,13.4,1505.2,326.8,-0.7,1.8,2470.96,13.29,0.01,185.7
2022-06-04T09:07:03,42.805,6.029,0.0,-0.022,-0.038,102.0,103.0,100.0,13.4,1505.2,328.7,-0.8,1.8,2470.952,13.29,0.022,180.0
2022-06-04T09:10:03,42.805,6.029,-0.019,-0.007,-0.014,102.0,102.0,101.0,13.4,1505.2,323.1,-0.8,1.8,2470.955,13.29,0.02,249.8
2022-06-04T09:13:03,42.805,6.029,0.007,0.005,0.001,102.0,103.0,100.0,13.3,1505.2,325.1,-0.8,1.8,2470.946,13.29,0.008,54.5
2022-06-04T09:16:03,42.805,6.029,0.01,-0.004,-0.012,102.0,102.0,101.0,13.4,1505.2,327.7,-0.8,1.8,2470.91,13.29,0.01,111.8
2022-06-04T09:19:03,42.805,6.029,0.003,-0.007,0.021,103.0,103.0,100.0,13.3,1505.2,323.4,-0.7,1.8,2470.939,13.29,0.007,156.8
2022-06-04T09:22:03,42.805,6.029,0.002,0.005,0.005,103.0,102.0,100.0,13.3,1505.2,324.3,-0.8,1.8,2470.969,13.29,0.005,21.8
2022-06-04T09:25:03,42.805,6.029,0.0,-0.018,-0.02,104.0,102.0,101.0,13.4,1505.2,329.4,-0.8,1.8,2470.93,13.29,0.018,180.0
2022-06-04T09:28:03,42.805,6.029,-0.025,-0.005,-0.018,103.0,102.0,100.0,13.4,1505.2,325.3,-0.8,1.8,2470.928,13.29,0.025,258.7
2022-06-04T09:31:03,42.805,6.029,0.03,0.001,-0.005,102.0,101.0,101.0,13.4,1505.2,322.5,-0.8,1.8,2470.918,13.29,0.03,88.1
2022-06-04T09:34:03,42.805,6.029,0.0,-0.022,-0.012,101.0,103.0,102.0,13.4,1505.2,325.1,-0.8,1.8,2470.961,13.29,0.022,180.0
2022-06-04T09:37:03,42.805,6.029,0.004,-0.01,-0.01,102.0,100.0,101.0,13.4,1505.2,328.6,-0.7,1.8,2470.925,13.29,0.01,158.2
2022-06-04T09:40:03,42.805,6.029,-0.015,-0.007,0.0,104.0,101.0,100.0,13.4,1505.2,327.6,-0.8,1.8,2470.889,13.29,0.016,245.0
2022-06-04T09:43:03,42.805,6.029,-0.036,0.0,-0.028,103.0,101.0,101.0,13.4,1505.2,325.3,-0.8,1.8,2470.95,13.29,0.036,270.0
2022-06-04T09:46:03,42.805,6.029,-0.023,-0.009,-0.011,102.0,102.0,101.0,13.4,1505.2,321.4,-0.8,1.8,2470.959,13.29,0.024,248.6
2022-06-04T09:49:03,42.805,6.029,0.003,-0.004,-0.004,103.0,102.0,101.0,13.4,1505.2,328.4,-0.7,1.8,2470.892,13.29,0.005,143.1
2022-06-04T09:52:03,42.805,6.029,-0.007,-0.008,-0.004,103.0,101.0,102.0,13.4,1505.2,324.6,-0.7,1.8,2470.927,13.29,0.01,221.2
2022-06-04T09:55:03,42.805,6.029,-0.015,-0.032,0.002,103.0,102.0,101.0,13.4,1505.2,327.1,-0.7,1.8,2470.903,13.29,0.035,205.1